Home   Weather   Linz   Past weeks

Flag for Austria Past Weather in Linz, Upper Austria, Austria — Yesterday and Last 2 Weeks

Now
61 °F

Sunny.


Feels Like: 61 °F
Forecast: 51 / 76 °F
Wind: 2 mph from North

Location: Linz / Hoersching-Flughafen

Current Time: Sep 30, 2016 at 10:23:10 AM

Latest Report: Sep 30, 2016 at 9:50 AM


Visibility: 10 mi

Pressure: 30.09 "Hg

Humidity: 77%

Dew Point: 54 °F

Location of LinzLocation

Past Weather in Linz — Graph

°F

Linz Temperature Yesterday

Maximum temperature yesterday: 77 °F (at 4:50 PM)
Minimum temperature yesterday: 52 °F (at 7:20 AM)
Average temperature yesterday: 63 °F

High & Low Weather Summary for the Past Weeks

 TemperatureHumidityPressure
High84 °F (Sep 15, 3:20 PM)100% (Sep 18, 3:20 AM)30.42 "Hg (Sep 18, 3:20 AM)
Low43 °F (Sep 23, 6:20 AM)35% (Sep 24, 4:20 PM)29.80 "Hg (Sep 17, 12:50 AM)
Average59 °F80%30.11 "Hg
* Reported Sep 15 8:20 AM — Sep 30 8:50 AM, Linz, Weather by CustomWeather, © 2016

Note: Actual official high and low records may vary slightly from our data, if they occured in-between our weather recording intervals... More about our weather records

Advertising

Linz Weather History for the Previous 24 Hours

Scroll right to see more
 ConditionsComfort  
Time TempWeatherWind HumidityBarometerVisibility
8:50 AM
Fri, Sep 30
57 °FSunny.1 mph82%30.09 "Hg10 mi
8:20 AM52 °FPassing clouds.1 mph100%30.09 "Hg6 mi
7:50 AM50 °FLight fog.1 mph100%30.09 "Hg5 mi
7:20 AM48 °FCool.1 mph100%30.09 "Hg5 mi
6:50 AM50 °FFog.1 mph94%30.07 "Hg5 mi
6:20 AM50 °FCool.2 mph100%30.07 "Hg5 mi
5:50 AM50 °FClear.2 mph94%30.07 "Hg10 mi
5:20 AM50 °FClear.1 mph100%30.07 "Hg10 mi
4:50 AM50 °FClear.1 mph100%30.09 "Hg4 mi
4:20 AM52 °FClear.1 mph88%30.09 "Hg10 mi
3:50 AM52 °FClear.1 mph100%30.09 "Hg10 mi
3:20 AM52 °FFog.1 mph94%30.09 "HgN/A
2:50 AM54 °FCool.2 mph94%30.09 "HgN/A
2:20 AM54 °FCool.3 mph94%30.09 "HgN/A
1:50 AM52 °FCool.2 mph94%30.09 "HgN/A
1:20 AM54 °FCool.1 mph94%30.09 "HgN/A
12:50 AM54 °FPassing clouds.1 mph100%30.09 "HgN/A
12:20 AM55 °FCool.2 mph94%30.09 "HgN/A
11:50 PM
Thu, Sep 29
55 °FCool.1 mph88%30.09 "HgN/A
11:20 PM55 °FCool.1 mph94%30.09 "HgN/A
10:50 PM55 °FCool.1 mph88%30.09 "HgN/A
10:20 PM57 °FCool.2 mph88%30.09 "HgN/A
9:50 PM59 °FCool.2 mph82%30.09 "HgN/A
9:20 PM59 °FPassing clouds.1 mph82%30.09 "HgN/A
8:50 PM59 °FCool.2 mph82%30.09 "HgN/A
8:20 PM63 °FMild.1 mph73%30.09 "HgN/A
7:50 PM63 °FClear.1 mph73%30.09 "Hg10 mi
7:20 PM68 °FClear.No wind60%30.09 "Hg10 mi
6:50 PM68 °FClear.3 mph60%30.09 "Hg10 mi
6:20 PM73 °FSunny.5 mph50%30.09 "Hg10 mi
5:50 PM75 °FSunny.2 mph47%30.09 "Hg10 mi
5:20 PM75 °FSunny.2 mph50%30.09 "Hg10 mi
4:50 PM77 °FPassing clouds.3 mph47%30.09 "HgN/A
4:20 PM75 °FPassing clouds.3 mph47%30.12 "HgN/A
3:50 PM75 °FPassing clouds.6 mph47%30.12 "HgN/A
3:20 PM75 °FSunny.3 mph47%30.15 "Hg10 mi
2:50 PM73 °FPassing clouds.6 mph50%30.15 "HgN/A
2:20 PM73 °FPassing clouds.5 mph50%30.18 "HgN/A
1:50 PM73 °FSunny.6 mph50%30.18 "Hg10 mi
1:20 PM73 °FSunny.5 mph50%30.21 "Hg10 mi
12:50 PM72 °FSunny.2 mph53%30.21 "Hg10 mi
12:20 PM70 °FSunny.3 mph60%30.24 "Hg10 mi
11:50 AM68 °FPassing clouds.5 mph56%30.24 "HgN/A
11:20 AM66 °FSunny.2 mph64%30.27 "Hg10 mi
10:50 AM66 °FSunny.2 mph64%30.27 "Hg10 mi
10:20 AM63 °FPassing clouds.3 mph73%30.30 "HgN/A
Weather by CustomWeather, © 2016

See weather overviewHow to use our weather pages